DLH1W8 EDDF-EDDH

Flight info

Callsign DLH1W8
Flight time 0h 57m
Altitude 35000
Route MARUN3W/25C MARUN Y150 TOLGI DCT SAS/N0435F340 P605 NOLGO NOLGO6A
Aircraft A320/M-SDE3FGHIRWY/LB1

Departure

Time 2026-05-05 16:37
Airport Frankfurt Main Airport (EDDF)

Arrival

Time 2026-05-05 17:34
Airport Hamburg Helmut Schmidt Airport (EDDH)
Time Latitude Longitude Altitude Speed Heading
2026-05-05 15:36 50.04700 8.57088 365 ft 0 kts 116°
2026-05-05 16:15 50.04721 8.57032 366 ft 4 kts 132°
2026-05-05 16:16 50.04754 8.57007 366 ft 1 kts 202°
2026-05-05 16:26 50.04643 8.56930 364 ft 14 kts 202°
2026-05-05 16:26 50.04467 8.56861 369 ft 11 kts 192°
2026-05-05 16:27 50.04383 8.56839 375 ft 16 kts 190°
2026-05-05 16:27 50.04277 8.56858 366 ft 11 kts 122°
2026-05-05 16:27 50.04276 8.56889 367 ft 0 kts 81°
2026-05-05 16:28 50.04297 8.56986 367 ft 8 kts 70°
2026-05-05 16:28 50.04298 8.56989 367 ft 0 kts 70°
2026-05-05 16:28 50.04306 8.57022 368 ft 8 kts 69°
2026-05-05 16:28 50.04324 8.57097 366 ft 6 kts 69°
2026-05-05 16:29 50.04327 8.57110 369 ft 6 kts 69°
2026-05-05 16:29 50.04363 8.57259 366 ft 13 kts 70°
2026-05-05 16:29 50.04387 8.57362 369 ft 9 kts 71°
2026-05-05 16:29 50.04409 8.57457 365 ft 13 kts 70°
2026-05-05 16:30 50.04458 8.57661 372 ft 21 kts 70°
2026-05-05 16:30 50.04508 8.57872 372 ft 20 kts 70°
2026-05-05 16:30 50.04551 8.58054 373 ft 16 kts 70°
2026-05-05 16:30 50.04589 8.58210 373 ft 15 kts 70°
2026-05-05 16:31 50.04620 8.58342 375 ft 12 kts 70°
2026-05-05 16:31 50.04647 8.58451 374 ft 11 kts 72°
2026-05-05 16:31 50.04646 8.58540 370 ft 10 kts 119°
2026-05-05 16:31 50.04603 8.58584 369 ft 0 kts 159°
2026-05-05 16:32 50.04582 8.58596 371 ft 7 kts 160°
2026-05-05 16:32 50.04522 8.58616 372 ft 9 kts 185°
2026-05-05 16:32 50.04485 8.58568 372 ft 7 kts 242°
2026-05-05 16:32 50.04476 8.58536 372 ft 0 kts 249°
2026-05-05 16:36 50.04476 8.58535 372 ft 1 kts 249°
2026-05-05 16:36 50.04429 8.58341 369 ft 55 kts 250°
2026-05-05 16:36 50.04212 8.57434 368 ft 120 kts 250°
2026-05-05 16:37 50.03866 8.55967 521 ft 154 kts 250°
2026-05-05 16:37 50.03508 8.54446 1257 ft 152 kts 250°
2026-05-05 16:37 50.03133 8.52886 1868 ft 161 kts 250°
2026-05-05 16:37 50.02713 8.51145 2236 ft 183 kts 248°
2026-05-05 16:38 50.01970 8.49423 2650 ft 201 kts 224°
2026-05-05 16:38 50.00768 8.48268 3384 ft 206 kts 199°
2026-05-05 16:38 49.99358 8.47835 4273 ft 207 kts 189°
2026-05-05 16:38 49.97925 8.47513 5134 ft 208 kts 188°
2026-05-05 16:39 49.96487 8.47189 5990 ft 209 kts 189°
2026-05-05 16:39 49.95038 8.46617 6571 ft 226 kts 196°
2026-05-05 16:39 49.93465 8.45897 7123 ft 241 kts 197°
2026-05-05 16:39 49.91940 8.44776 7956 ft 247 kts 218°
2026-05-05 16:40 49.90898 8.42647 8850 ft 254 kts 246°
2026-05-05 16:40 49.90642 8.39917 9775 ft 263 kts 274°
2026-05-05 16:40 49.91322 8.37252 10576 ft 274 kts 305°
2026-05-05 16:40 49.92842 8.35425 11363 ft 284 kts 333°
2026-05-05 16:41 49.94727 8.34149 11758 ft 307 kts 335°
2026-05-05 16:41 49.96066 8.33278 11947 ft 323 kts 335°
2026-05-05 16:41 49.98220 8.31900 12259 ft 344 kts 336°
2026-05-05 16:41 50.00474 8.30467 12907 ft 353 kts 336°
2026-05-05 16:42 50.02834 8.29331 13652 ft 360 kts 348°
2026-05-05 16:42 50.05339 8.28973 14338 ft 365 kts
2026-05-05 16:42 50.07872 8.29439 15014 ft 369 kts 13°
2026-05-05 16:42 50.10345 8.30639 15701 ft 373 kts 18°
2026-05-05 16:43 50.12815 8.31941 16394 ft 377 kts 18°
2026-05-05 16:43 50.15312 8.33252 17058 ft 381 kts 18°
2026-05-05 16:43 50.17838 8.34576 17733 ft 385 kts 18°
2026-05-05 16:43 50.20386 8.35912 18349 ft 389 kts 18°
2026-05-05 16:44 50.22959 8.37267 18926 ft 392 kts 18°
2026-05-05 16:44 50.25557 8.38637 19503 ft 396 kts 18°
2026-05-05 16:44 50.28178 8.40021 20072 ft 400 kts 18°
2026-05-05 16:44 50.30831 8.41428 20620 ft 404 kts 18°
2026-05-05 16:45 50.33493 8.42863 21161 ft 407 kts 18°
2026-05-05 16:45 50.36188 8.44333 21692 ft 411 kts 18°
2026-05-05 16:45 50.38897 8.45819 22212 ft 414 kts 18°
2026-05-05 16:45 50.41631 8.47321 22743 ft 418 kts 18°
2026-05-05 16:46 50.44382 8.48834 23248 ft 422 kts 18°
2026-05-05 16:46 50.47169 8.50365 23694 ft 425 kts 18°
2026-05-05 16:46 50.49949 8.51828 24113 ft 428 kts 16°
2026-05-05 16:46 50.52802 8.53227 24532 ft 431 kts 15°
2026-05-05 16:47 50.55693 8.54579 24954 ft 434 kts 14°
2026-05-05 16:47 50.58606 8.55913 25365 ft 437 kts 14°
2026-05-05 16:47 50.61534 8.57262 25794 ft 440 kts 14°
2026-05-05 16:47 50.64487 8.58645 26196 ft 443 kts 15°
2026-05-05 16:48 50.67450 8.60059 26589 ft 446 kts 15°
2026-05-05 16:48 50.70429 8.61504 26985 ft 449 kts 15°
2026-05-05 16:48 50.73426 8.62963 27377 ft 452 kts 15°
2026-05-05 16:48 50.76439 8.64445 27778 ft 455 kts 17°
2026-05-05 16:49 50.79364 8.66428 28167 ft 460 kts 26°
2026-05-05 16:49 50.82077 8.69148 28547 ft 465 kts 36°
2026-05-05 16:49 50.84507 8.72542 28918 ft 468 kts 46°
2026-05-05 16:49 50.86598 8.76508 29275 ft 471 kts 53°
2026-05-05 16:50 50.88584 8.80654 29633 ft 474 kts 53°
2026-05-05 16:50 50.90582 8.84828 29975 ft 477 kts 53°
2026-05-05 16:50 50.92587 8.89026 30269 ft 479 kts 53°
2026-05-05 16:50 50.94601 8.93244 30566 ft 481 kts 53°
2026-05-05 16:51 50.96627 8.97489 30865 ft 483 kts 53°
2026-05-05 16:51 50.98657 9.01747 31162 ft 485 kts 53°
2026-05-05 16:51 51.00690 9.06027 31459 ft 487 kts 53°
2026-05-05 16:51 51.02725 9.10322 31858 ft 486 kts 53°
2026-05-05 16:52 51.04753 9.14612 32274 ft 485 kts 53°
2026-05-05 16:52 51.06783 9.18883 32677 ft 484 kts 51°
2026-05-05 16:52 51.09070 9.22798 33111 ft 483 kts 41°
2026-05-05 16:52 51.11713 9.26070 33529 ft 480 kts 31°
2026-05-05 16:53 51.14629 9.28615 33928 ft 477 kts 21°
2026-05-05 16:53 51.17738 9.30389 34256 ft 473 kts 11°
2026-05-05 16:53 51.20938 9.31540 34570 ft 471 kts
2026-05-05 16:53 51.24149 9.32649 34771 ft 472 kts
2026-05-05 16:54 51.30489 9.34865 34811 ft 462 kts
2026-05-05 16:54 51.36760 9.37049 34803 ft 460 kts
2026-05-05 16:55 51.43026 9.39222 34814 ft 461 kts
2026-05-05 16:55 51.49291 9.41415 34813 ft 461 kts
2026-05-05 16:56 51.55520 9.43599 34812 ft 460 kts
2026-05-05 16:56 51.61819 9.45819 34822 ft 461 kts
2026-05-05 16:57 51.68077 9.48035 34828 ft 461 kts
2026-05-05 16:57 51.74299 9.50241 34840 ft 461 kts
2026-05-05 16:58 51.80565 9.52464 34851 ft 461 kts
2026-05-05 16:58 51.86570 9.56263 34846 ft 468 kts 24°
2026-05-05 16:59 51.92361 9.61075 34860 ft 468 kts 24°
2026-05-05 16:59 51.98160 9.65881 34857 ft 468 kts 24°
2026-05-05 17:00 52.03956 9.70700 34859 ft 468 kts 24°
2026-05-05 17:00 52.09764 9.75549 34838 ft 471 kts 24°
2026-05-05 17:01 52.15609 9.80441 34845 ft 474 kts 24°
2026-05-05 17:01 52.18532 9.82894 34689 ft 470 kts 24°
2026-05-05 17:01 52.21438 9.85339 34033 ft 471 kts 24°
2026-05-05 17:02 52.24360 9.87717 33419 ft 467 kts 19°
2026-05-05 17:02 52.27394 9.89448 32893 ft 458 kts 10°
2026-05-05 17:02 52.30460 9.90788 32355 ft 454 kts 10°
2026-05-05 17:02 52.33506 9.92120 31834 ft 451 kts 10°
2026-05-05 17:03 52.36533 9.93442 31320 ft 448 kts 10°
2026-05-05 17:03 52.39536 9.94760 30818 ft 446 kts 10°
2026-05-05 17:03 52.42521 9.96074 30324 ft 443 kts 11°
2026-05-05 17:03 52.45495 9.97389 29808 ft 441 kts 11°
2026-05-05 17:04 52.48447 9.98697 29243 ft 438 kts 11°
2026-05-05 17:04 52.51379 10.00000 28685 ft 435 kts 11°
2026-05-05 17:04 52.54293 10.01298 28141 ft 432 kts 11°
2026-05-05 17:04 52.57146 10.02570 27602 ft 429 kts 11°
2026-05-05 17:05 52.60018 10.03852 27097 ft 425 kts 11°
2026-05-05 17:05 52.62861 10.05121 26584 ft 422 kts 11°
2026-05-05 17:05 52.65688 10.06384 26073 ft 419 kts 11°
2026-05-05 17:05 52.68493 10.07639 25580 ft 416 kts 11°
2026-05-05 17:06 52.71278 10.08889 25088 ft 413 kts 11°
2026-05-05 17:06 52.74049 10.10135 24609 ft 410 kts 11°
2026-05-05 17:06 52.76796 10.11323 24137 ft 405 kts
2026-05-05 17:06 52.79559 10.11770 23719 ft 394 kts 355°
2026-05-05 17:07 52.82289 10.11763 23248 ft 391 kts 354°
2026-05-05 17:07 52.85000 10.11714 22702 ft 389 kts 354°
2026-05-05 17:07 52.87698 10.11650 22169 ft 387 kts 354°
2026-05-05 17:07 52.90382 10.11570 21646 ft 385 kts 354°
2026-05-05 17:08 52.93052 10.11476 21128 ft 383 kts 354°
2026-05-05 17:08 52.95714 10.11370 20620 ft 381 kts 354°
2026-05-05 17:08 52.98357 10.11252 20125 ft 379 kts 354°
2026-05-05 17:08 53.00992 10.11123 19632 ft 378 kts 354°
2026-05-05 17:09 53.03611 10.10983 19148 ft 376 kts 354°
2026-05-05 17:09 53.06219 10.10834 18675 ft 374 kts 354°
2026-05-05 17:09 53.08819 10.10678 18205 ft 372 kts 354°
2026-05-05 17:09 53.11399 10.10496 17758 ft 367 kts 352°
2026-05-05 17:10 53.13797 10.09502 17621 ft 346 kts 331°
2026-05-05 17:10 53.15843 10.07570 17448 ft 333 kts 324°
2026-05-05 17:10 53.17799 10.05558 17120 ft 328 kts 324°
2026-05-05 17:10 53.19727 10.03560 16752 ft 326 kts 324°
2026-05-05 17:11 53.21647 10.01562 16300 ft 326 kts 324°
2026-05-05 17:11 53.23585 9.99534 15667 ft 331 kts 324°
2026-05-05 17:11 53.25548 9.97459 15049 ft 336 kts 324°
2026-05-05 17:11 53.27534 9.95343 14443 ft 341 kts 324°
2026-05-05 17:12 53.29537 9.93190 13844 ft 344 kts 324°
2026-05-05 17:12 53.31555 9.91007 13188 ft 346 kts 324°
2026-05-05 17:12 53.33554 9.88840 12543 ft 347 kts 324°
2026-05-05 17:12 53.35580 9.86645 11904 ft 348 kts 324°
2026-05-05 17:13 53.37602 9.84406 11272 ft 346 kts 321°
2026-05-05 17:13 53.39216 9.81491 10650 ft 340 kts 299°
2026-05-05 17:13 53.40026 9.77830 10101 ft 334 kts 277°
2026-05-05 17:13 53.40281 9.74048 9925 ft 320 kts 274°
2026-05-05 17:14 53.40488 9.70437 9910 ft 302 kts 274°
2026-05-05 17:14 53.40680 9.67023 9915 ft 286 kts 274°
2026-05-05 17:14 53.40865 9.63773 9914 ft 277 kts 274°
2026-05-05 17:14 53.41048 9.60565 9915 ft 276 kts 274°
2026-05-05 17:15 53.41432 9.57432 9915 ft 277 kts 292°
2026-05-05 17:15 53.42555 9.54837 9604 ft 279 kts 317°
2026-05-05 17:15 53.44133 9.52925 9182 ft 280 kts 323°
2026-05-05 17:15 53.45763 9.51139 8792 ft 279 kts 324°
2026-05-05 17:16 53.47390 9.49376 8415 ft 277 kts 325°
2026-05-05 17:16 53.49183 9.48200 8038 ft 281 kts 350°
2026-05-05 17:16 53.51116 9.48531 7768 ft 280 kts 19°
2026-05-05 17:16 53.52705 9.50302 7644 ft 273 kts 47°
2026-05-05 17:17 53.53588 9.53037 7512 ft 264 kts 77°
2026-05-05 17:17 53.53589 9.56046 7259 ft 256 kts 108°
2026-05-05 17:17 53.52737 9.58589 6942 ft 249 kts 137°
2026-05-05 17:17 53.51455 9.60538 6515 ft 251 kts 143°
2026-05-05 17:18 53.50081 9.62405 6010 ft 256 kts 144°
2026-05-05 17:18 53.48686 9.64258 5743 ft 251 kts 144°
2026-05-05 17:18 53.47359 9.66098 5541 ft 246 kts 135°
2026-05-05 17:18 53.46545 9.68595 5255 ft 247 kts 103°
2026-05-05 17:19 53.46608 9.71428 4939 ft 244 kts 70°
2026-05-05 17:19 53.47519 9.73768 4624 ft 239 kts 38°
2026-05-05 17:19 53.48920 9.75123 4309 ft 233 kts 17°
2026-05-05 17:19 53.50474 9.76054 3806 ft 240 kts 17°
2026-05-05 17:20 53.52030 9.77087 3486 ft 240 kts 30°
2026-05-05 17:20 53.53228 9.79020 3135 ft 241 kts 48°
2026-05-05 17:20 53.54306 9.81195 2710 ft 243 kts 48°
2026-05-05 17:20 53.55394 9.83386 2277 ft 245 kts 49°
2026-05-05 17:21 53.56465 9.85544 2011 ft 230 kts 48°
2026-05-05 17:21 53.57449 9.87532 2083 ft 218 kts 49°
2026-05-05 17:21 53.58450 9.89544 2723 ft 227 kts 47°
2026-05-05 17:22 53.60324 9.94015 3893 ft 242 kts 73°
2026-05-05 17:22 53.60367 9.96823 3991 ft 243 kts 105°
2026-05-05 17:22 53.59553 9.99252 4006 ft 239 kts 136°
2026-05-05 17:22 53.58735 10.00495 4009 ft 240 kts 142°
2026-05-05 17:23 53.57423 10.02236 4008 ft 241 kts 144°
2026-05-05 17:23 53.56058 10.03852 4002 ft 239 kts 157°
2026-05-05 17:23 53.54465 10.04340 4004 ft 233 kts 190°
2026-05-05 17:23 53.52999 10.03331 4008 ft 228 kts 222°
2026-05-05 17:24 53.51925 10.01399 4007 ft 227 kts 233°
2026-05-05 17:24 53.50633 9.98623 4008 ft 227 kts 234°
2026-05-05 17:24 53.49985 9.97203 3865 ft 226 kts 234°
2026-05-05 17:24 53.49033 9.95104 3514 ft 226 kts 234°
2026-05-05 17:25 53.48082 9.92999 3174 ft 227 kts 234°
2026-05-05 17:25 53.47454 9.91612 3033 ft 223 kts 234°
2026-05-05 17:25 53.46248 9.88959 3013 ft 204 kts 234°
2026-05-05 17:25 53.45413 9.87122 3000 ft 192 kts 234°
2026-05-05 17:26 53.44622 9.85381 3003 ft 184 kts 234°
2026-05-05 17:26 53.43853 9.83695 3010 ft 180 kts 234°
2026-05-05 17:26 53.43100 9.82048 3012 ft 179 kts 234°
2026-05-05 17:26 53.42342 9.80387 3011 ft 180 kts 234°
2026-05-05 17:27 53.41583 9.78719 3011 ft 180 kts 234°
2026-05-05 17:27 53.40836 9.77037 3000 ft 180 kts 240°
2026-05-05 17:27 53.40486 9.75078 3004 ft 176 kts 273°
2026-05-05 17:27 53.40834 9.73146 3010 ft 174 kts 307°
2026-05-05 17:28 53.41749 9.71868 3005 ft 173 kts 339°
2026-05-05 17:28 53.42911 9.71629 3012 ft 172 kts 10°
2026-05-05 17:28 53.44059 9.72240 3018 ft 175 kts 18°
2026-05-05 17:28 53.45208 9.72918 3016 ft 175 kts 18°
2026-05-05 17:29 53.46360 9.73594 3009 ft 175 kts 18°
2026-05-05 17:29 53.47510 9.74267 3014 ft 176 kts 18°
2026-05-05 17:29 53.48713 9.74969 3017 ft 186 kts 18°
2026-05-05 17:29 53.49944 9.75691 3012 ft 188 kts 18°
2026-05-05 17:30 53.51150 9.76399 3024 ft 173 kts 18°
2026-05-05 17:30 53.52177 9.77206 2944 ft 157 kts 35°
2026-05-05 17:30 53.52924 9.78460 2817 ft 149 kts 47°
2026-05-05 17:30 53.53577 9.79771 2624 ft 144 kts 48°
2026-05-05 17:31 53.54201 9.81020 2459 ft 137 kts 47°
2026-05-05 17:31 53.54806 9.82235 2270 ft 134 kts 47°
2026-05-05 17:31 53.55404 9.83435 2085 ft 133 kts 47°
2026-05-05 17:31 53.55998 9.84629 1903 ft 132 kts 48°
2026-05-05 17:32 53.56587 9.85813 1736 ft 131 kts 49°
2026-05-05 17:32 53.57169 9.86984 1544 ft 130 kts 48°
2026-05-05 17:32 53.57751 9.88155 1380 ft 130 kts 48°
2026-05-05 17:32 53.58333 9.89326 1194 ft 130 kts 49°
2026-05-05 17:33 53.58912 9.90494 1018 ft 130 kts 47°
2026-05-05 17:33 53.59492 9.91662 830 ft 130 kts 49°
2026-05-05 17:33 53.60062 9.92812 676 ft 128 kts 49°
2026-05-05 17:33 53.60638 9.93976 509 ft 130 kts 51°
2026-05-05 17:34 53.61212 9.95139 334 ft 129 kts 52°
2026-05-05 17:34 53.61780 9.96290 132 ft 127 kts 51°
2026-05-05 17:34 53.62329 9.97397 46 ft 112 kts 50°
2026-05-05 17:34 53.62579 9.97895 46 ft 26 kts 51°
2026-05-05 17:35 53.62690 9.98125 48 ft 24 kts 50°
2026-05-05 17:35 53.62759 9.98301 48 ft 14 kts 86°
2026-05-05 17:35 53.62698 9.98421 46 ft 4 kts 141°
2026-05-05 17:35 53.62697 9.98422 46 ft 0 kts 141°
2026-05-05 17:36 53.62680 9.98450 46 ft 7 kts 130°
2026-05-05 17:36 53.62680 9.98527 43 ft 8 kts 58°
2026-05-05 17:36 53.62719 9.98608 46 ft 10 kts 50°
2026-05-05 17:36 53.62771 9.98714 46 ft 15 kts 50°
2026-05-05 17:37 53.62845 9.98866 47 ft 18 kts 51°
2026-05-05 17:37 53.62929 9.99036 47 ft 20 kts 50°
2026-05-05 17:37 53.63022 9.99223 48 ft 22 kts 50°
2026-05-05 17:37 53.63105 9.99426 46 ft 21 kts 61°
2026-05-05 17:38 53.63185 9.99599 48 ft 11 kts 52°
2026-05-05 17:38 53.63195 9.99622 48 ft 4 kts 52°
2026-05-05 17:38 53.63216 9.99660 48 ft 4 kts 43°
2026-05-05 17:38 53.63234 9.99688 49 ft 3 kts 43°
2026-05-05 17:39 53.63249 9.99712 49 ft 7 kts 45°
2026-05-05 17:39 53.63299 9.99801 49 ft 13 kts 50°
2026-05-05 17:39 53.63362 9.99931 50 ft 13 kts 51°
2026-05-05 17:39 53.63410 10.00027 51 ft 9 kts 49°
2026-05-05 17:40 53.63427 10.00113 51 ft 9 kts 98°
2026-05-05 17:40 53.63376 10.00160 48 ft 10 kts 175°
2026-05-05 17:40 53.63305 10.00169 48 ft 10 kts 175°
2026-05-05 17:40 53.63236 10.00180 47 ft 10 kts 176°
2026-05-05 17:41 53.63170 10.00191 47 ft 9 kts 155°
2026-05-05 17:41 53.63164 10.00276 49 ft 7 kts 71°
2026-05-05 17:41 53.63169 10.00356 49 ft 0 kts 88°
2026-05-05 17:41 53.63169 10.00362 49 ft 0 kts 88°